M0ADS Weather Reports


time (UTC)temp
F
wind
direction
speed
knots
gust
knots
rain 1hr
in
rain 24hr
in
rain mn
in
humidity
%
barometer
mb
20260508065518 49 305 0.0 0.0 0.00 0.00 0.00 87 1015.9
20260508064016 49 305 0.0 0.0 0.00 0.00 0.00 87 1015.9
20260508062516 48 305 0.0 0.0 0.00 0.00 0.00 88 1015.8
20260508061016 48 305 0.0 0.0 0.00 0.00 0.00 88 1015.6
20260508055516 48 305 0.0 0.0 0.00 0.00 0.00 88 1015.5
20260508054016 47 305 0.0 0.0 0.00 0.00 0.00 88 1015.4
20260508052516 47 305 0.0 0.0 0.00 0.00 0.00 88 1015.3
20260508051016 47 305 0.0 0.0 0.00 0.00 0.00 88 1015.2
20260508045516 47 305 0.0 0.0 0.00 0.00 0.00 87 1015.2
20260508044015 47 305 0.0 0.0 0.00 0.00 0.00 87 1015.2
20260508042515 47 305 0.0 0.0 0.00 0.00 0.00 87 1015.0
20260508041016 47 305 0.0 0.0 0.00 0.00 0.00 86 1015.0
20260508035515 48 305 0.0 0.0 0.00 0.00 0.00 86 1014.9
20260508034016 48 305 0.0 0.0 0.00 0.00 0.00 85 1014.9
20260508032513 48 305 0.0 0.0 0.00 0.00 0.00 85 1015.0
20260508031013 48 305 0.0 0.0 0.00 0.00 0.00 85 1014.9
20260508025513 48 305 0.0 0.0 0.00 0.00 0.00 84 1014.8
20260508024011 49 305 0.0 0.0 0.00 0.00 0.00 84 1014.9
20260508022511 49 305 0.0 0.0 0.00 0.00 0.00 83 1014.9
20260508021011 49 305 0.0 0.0 0.00 0.00 0.00 83 1014.7
20260508015512 49 305 0.0 0.0 0.00 0.00 0.00 83 1014.7
20260508012509 49 305 0.0 0.0 0.00 0.00 0.00 82 1014.7
20260508011009 49 305 0.0 0.0 0.00 0.00 0.00 81 1014.7
20260508005507 50 305 0.0 0.0 0.00 0.00 0.00 81 1014.7
20260508004007 50 305 0.0 0.0 0.00 0.00 0.00 80 1014.8
20260508002507 50 305 0.0 0.0 0.00 0.00 0.00 79 1014.8
20260508001007 50 305 0.0 1.7 0.00 0.00 0.00 79 1014.8
20260507235507 51 305 0.0 0.9 0.00 0.00 0.00 78 1014.9
20260507234005 51 305 0.0 1.7 0.00 0.00 0.00 77 1014.9
20260507232505 51 351 0.0 0.9 0.00 0.00 0.00 77 1014.9
20260507231004 51 351 0.0 1.7 0.00 0.00 0.00 76 1014.9
20260507225502 51 286 0.0 0.9 0.00 0.00 0.00 75 1014.9
20260507224001 51 286 0.0 1.7 0.00 0.00 0.00 74 1014.8
20260507222501 51 271 0.0 1.7 0.00 0.00 0.00 73 1014.8
20260507221004 51 171 0.0 0.0 0.00 0.00 0.00 72 1014.9
20260507215501 52 171 0.0 0.0 0.00 0.00 0.00 72 1014.9
20260507214006 52 171 0.0 0.9 0.00 0.00 0.00 71 1015.0
20260507212511 52 171 0.0 0.9 0.00 0.00 0.00 69 1014.9
20260507211010 53 171 0.0 0.9 0.00 0.00 0.00 68 1014.8
20260507205510 53 178 0.0 4.3 0.00 0.00 0.00 67 1014.8
20260507204003 53 294 0.0 4.3 0.00 0.00 0.00 66 1014.7
20260507202510 53 109 0.0 1.7 0.00 0.00 0.00 65 1014.5
20260507201007 53 199 0.0 1.7 0.00 0.00 0.00 63 1014.5
20260507195452 54 201 0.9 6.1 0.00 0.00 0.00 63 1014.2
20260507194000 54 198 0.0 2.6 0.00 0.00 0.00 63 1014.2
20260507192505 54 144 0.0 3.5 0.00 0.00 0.00 60 1014.0
20260507191005 55 130 0.0 2.6 0.00 0.00 0.00 60 1013.9
20260507185452 55 75 0.0 3.5 0.00 0.00 0.00 60 1013.9
20260507183952 55 182 0.0 2.6 0.00 0.00 0.00 60 1013.9
20260507182452 55 153 0.0 2.6 0.00 0.00 0.00 59 1013.9
20260507180952 56 169 0.0 5.2 0.00 0.00 0.00 59 1013.7
20260507175452 56 153 0.0 6.1 0.00 0.00 0.00 58 1013.6
20260507173953 56 195 0.9 5.2 0.00 0.00 0.00 58 1013.6
20260507172453 56 138 0.9 6.1 0.00 0.00 0.00 58 1013.7
20260507170950 57 84 0.0 4.3 0.00 0.00 0.00 57 1013.7
20260507165450 57 143 0.0 3.5 0.00 0.00 0.00 57 1013.7
20260507163950 57 133 0.9 7.0 0.00 0.00 0.00 57 1013.7
20260507162450 58 184 0.0 2.6 0.00 0.00 0.00 57 1013.7
20260507160950 58 62 0.0 3.5 0.00 0.00 0.00 55 1013.7
20260507155445 58 140 0.0 3.5 0.00 0.00 0.00 56 1013.8
20260507153945 59 10 0.0 5.2 0.00 0.00 0.00 56 1013.8
20260507152448 57 260 0.0 3.5 0.00 0.00 0.00 58 1014.0
20260507150948 57 79 0.0 4.3 0.00 0.00 0.00 58 1014.2
20260507145448 57 90 0.0 2.6 0.00 0.00 0.00 58 1014.2
20260507143945 56 206 0.0 2.6 0.00 0.00 0.00 60 1014.3
20260507142446 55 78 0.0 3.5 0.00 0.00 0.00 61 1014.5
20260507140946 55 9 0.0 2.6 0.00 0.00 0.00 61 1014.6
20260507135444 55 156 0.0 4.3 0.00 0.00 0.00 61 1014.7
20260507133944 55 123 0.0 1.7 0.00 0.00 0.00 62 1014.6
20260507132444 55 134 0.0 2.6 0.00 0.00 0.00 62 1014.7
20260507130944 56 98 0.0 2.6 0.00 0.00 0.00 64 1014.6
20260507125444 56 119 0.9 4.3 0.00 0.00 0.00 63 1014.6
20260507123943 58 141 0.9 5.2 0.00 0.00 0.00 62 1014.7
20260507122443 58 143 0.0 5.2 0.00 0.00 0.00 62 1014.7
20260507120943 58 149 0.0 3.5 0.00 0.00 0.00 63 1014.9
20260507115441 57 238 0.0 2.6 0.00 0.00 0.00 65 1015.2
20260507113941 56 107 0.9 3.5 0.00 0.00 0.00 66 1015.0
20260507112441 55 121 0.9 3.5 0.00 0.00 0.00 69 1015.0
20260507110941 55 126 0.0 3.5 0.00 0.00 0.00 72 1015.3
20260507103937 52 342 0.0 6.1 0.00 0.00 0.00 75 1015.5
20260507102437 51 343 0.0 2.6 0.00 0.00 0.00 79 1015.6
20260507100935 50 288 0.0 4.3 0.00 0.00 0.00 79 1015.6
20260507095435 50 69 0.0 3.5 0.00 0.00 0.00 79 1015.6
20260507093934 50 319 0.0 2.6 0.00 0.00 0.00 80 1015.6
20260507092434 49 81 0.0 3.5 0.00 0.00 0.00 81 1015.5
20260507090934 48 85 0.0 3.5 0.00 0.00 0.00 81 1015.5
20260507085432 48 266 0.0 1.7 0.00 0.00 0.00 82 1015.6
20260507083931 48 180 0.0 3.5 0.00 0.00 0.00 81 1015.5
20260507082431 49 49 0.0 1.7 0.00 0.00 0.00 82 1015.6
20260507080930 48 63 0.0 2.6 0.00 0.00 0.00 82 1015.6
20260507075430 48 124 0.0 2.6 0.00 0.00 0.00 82 1015.5
20260507073928 47 113 0.0 2.6 0.00 0.00 0.00 84 1015.5
20260507072427 47 113 0.0 2.6 0.00 0.00 0.00 85 1015.4
20260507070926 47 342 0.0 1.7 0.00 0.00 0.00 87 1015.3